Regional Weather Roundup
Issued by NWS Lake Charles, LA

Home | Current Version | Previous Version | Text Only | Print | Product List | Glossary On
Versions: 1 2 3 4 5 6 7 8 9 10 11 12 13 14 15 16 17 18 19 20 21 22 23 24 25 26 27 28 29 30 31 32 33 34 35 36 37 38 39 40 41 42 43 44 45 46 47 48 49 50
000
ASUS44 KLCH 301210
RWRLCH
RWRLCH
REGIONAL WEATHER ROUNDUP
NATIONAL WEATHER SERVICE LAKE CHARLES LA
700 AM CDT SUN AUG 30 2015

Note: "fair" indicates few or no clouds below 12,000 feet with no
significant weather and/or obstructions to visibility.


ACROSS SOUTHEAST TEXAS

CITY           SKY/WX    TMP DP  RH WIND       PRES   REMARKS
BEAUMONT       PTCLDY    69  68  96 NW5       30.00R
BEAUMONT CITY    N/A     68  66  94 CALM      30.02R
ORANGE         SUNNY    N/A N/A N/A CALM      30.03R HAZE
JASPER         MOCLDY    69  68  94 CALM      30.04S FOG
$$

ACROSS CENTRAL LOUISIANA

CITY           SKY/WX    TMP DP  RH WIND       PRES   REMARKS
LEESVILLE      CLEAR     69  67  90 S1        30.01R
FULLERTON        N/A     65  64  97 CALM      30.00R
ALEXANDRIA INT PTCLDY    67  65  93 CALM      30.00R FOG
ESLER FIELD    PTCLDY    68  65  90 CALM      30.03R FOG
DERIDDER         N/A     66  65  94 CALM      30.04R
OAKDALE          N/A     63  62  96 CALM      30.02R FOG
OPELOUSAS        N/A     65  65  99 CALM      30.03R FOG
$$

ACROSS SOUTHWEST AND SOUTH CENTRAL LOUISIANA

CITY           SKY/WX    TMP DP  RH WIND       PRES   REMARKS
SULPHUR        SUNNY     69  68  99 CALM      30.02R FOG
LAKE CHARLES   CLEAR     71  68  90 CALM      30.01R
CHENNAULT INT  CLEAR     70  68  94 CALM      30.02R
CAMERON PHI    MOSUNNY   73  72  94 E3        30.04R FOG
DEQUINCY         N/A     64  64 100 CALM      30.02R
JENNINGS         N/A     70  68  95 CALM      30.02R
LAFAYETTE      CLEAR     68  66  93 N3        30.02R
NEW IBERIA     CLEAR     69  67  93 CALM      30.02R FOG
ABBEVILLE        N/A     66  66 100 CALM      30.02R FOG
PATTERSON      CLEAR     70  66  88 CALM      30.03R
SALT POINT       N/A     73  71  93 CALM      30.00R
$$

SELECTED SITES ACROSS THE REGION

CITY           SKY/WX    TMP DP  RH WIND       PRES   REMARKS
HOUSTON BUSH   MOCLDY    70  66  87 CALM      30.01R
HOUSTON HOBBY  MOCLDY    72  66  81 CALM      30.00R
GALVESTON      MOCLDY    81  70  69 CALM      30.00R
COLLEGE STAT   CLOUDY    74  68  81 CALM      30.02R
CONROE         MOCLDY    68  64  87 CALM      30.02R
HUNTSVILLE     MOCLDY    73  65  75 CALM      30.02R
LUFKIN         CLOUDY    69  66  90 CALM      30.01S
SHREVEPORT     PTCLDY    71  65  81 S5        30.00S
MONROE         PTCLDY    70  66  87 S3        30.02R
NATCHEZ MS     CLEAR     68  64  88 CALM      30.04R
BATON ROUGE    CLEAR     69  66  90 CALM      30.03R
N.O. INTL ARPT PTCLDY    72  66  81 CALM      30.02S
SLIDELL        CLEAR     68  67  96 CALM      30.02S
$$

MARINE REPORTS

STATION/POSITION TIME  TEMP    WIND        PRES    VSBY  WAVE
                       AIR SEA DIR/SP/G                  HT/PER
                 (UTC) (F)     (DEG/KT/KT) (MB)    (MI)  (FT/S)
BUOY 30 S HIGH I 1150   83 85  150/  4/  6 1015.5R         1
SEA RIM ST PARK  1200   73     360/  6/  6 1016.7R
PORT ARTHUR      NOT AVBL
SABINE PASS N    NOT AVBL
TEXAS POINT      NOT AVBL
CALCASIEU PASS   NOT AVBL
LK CHARLES BEACH NOT AVBL
MARSH ISLAND     1100   83     190/  3/  6   N/A           0
FRESH WATER LOCK NOT AVBL
AMERADA PASS     NOT AVBL
$$



USA.gov is the U.S. government's official web portal to all federal, state and local government web resources and services.